Location: ??
(34.9170°N, 135.5016°E)
Time: 18:13:04
(UTC+00:00)

deb Chang Zheng 4 - Pass Details

Date: 29 October 2020
Orbit: 602 x 624 km, 98.6° (Epoch: 01 December)

Event Time Altitude Azimuth Distance (km) Brightness Sun altitude
Rises 20:07:08 0° 3° (N) 2,863 6.9 -14.8°
Reaches altitude 10° 20:09:24 10° 356° (N) 1,958 6.0 -14.4°
Maximum altitude 20:13:21 38° 288° (WNW) 927 4.0 -13.6°
Drops below altitude 10° 20:17:17 10° 220° (SW) 1,958 5.8 -12.8°
Sets 20:19:34 0° 212° (SSW) 2,862 6.7 -12.3°
